THORAD DELTA 1 DEB, 8785

Orbit data source: Space-Track

THORAD DELTA 1 DEB, 8785 is space debris in SSO originally from a launch on Fri, 15 Nov 1974 UTC launched from the Air Force Western Test Range (AFWTR). Debris objects in space refer to the collection of defunct objects orbiting the Earth. Examples of debris include non-operational satellites, rocket bodies, and fragments generated from explosions, collisions, or faulty payload assembly.

Loading next visibility...
Identifier
8785, 1974-089DM
Orbit
SSO
Country
Flag of USUS
Related business
Manufacturer
Unknown
Mission
Spacecraft
Bus & Motor
Unknown
Mass
Unknown
Launch date (UTC)
1974-11-15 (51 years ago)
Launch vehicle
Unknown
Launch site
Air Force Western Test Range (AFWTR)
Object type
Payload
Rocket body
Debris
Shape & HBR
Unknown shape, 0.1 m
Radar Cross Section
Small (<0.1 m²)

Expand to show TLE details & history
Last TLE update: 23 hours ago

TLE from 23 hours ago
0 THORAD DELTA 1 DEB
1 08785U 74089DM  26125.84178059  .00000117  00000-0  14135-2 0  9999
2 08785 101.0017 256.4626 0280847 131.4059  20.7370 12.13149275 75885
Epoch: 2026-05-05T20:12Z
TLE epoch observation values (Epoch: 2026-05-05T20:12:09.842Z)
Latitude
26.18539°
Longitude
-84.83067°
Altitude
1,416.044 km
Speed
7.248 km/s
True Right ascension
05h 27m 41s
True Declination
26° 03' 39"
Sunlit
Object was in daylight at epoch
Visualization orbit readout
Latitude
Unknown
Longitude
Unknown
Altitude
Unknown
Speed
Unknown
Apparent Right ascension
Unknown
Apparent Declination
Unknown
Sunlit
N/A
Visualization observer readout
Local Sidereal Time
03:02:58
Azimuth
Unknown
Elevation
Unknown
Doppler factor
Unknown
Orbital elements
Apogee altitude
1,844.699 km
Perigee altitude
1,395.444 km
Semi-major axis
7,998.208 km
Eccentricity
0.02808
Inclination
101.0017°
RAAN
256.4626°
Arg. of periapsis
131.4059°
True anomaly
21.91507°
Mean anomaly
20.737°
Eccentric anomaly
21.3221°
Mean motion
3.03427 °/min
Orbital period
118.64 mins
BSTAR
0.0014135
Loading maneuver chart data...
Computing Atmospheric mass density...

Documentation

Showing up to 5 results
|